[TLELIST] Archives

 

[list_settings.list_name] Current TLEs

December 27th 2010 PST

HST 1 20580U 90037B 10358.60613239 .00000517 00000-0 26610-4 0 6912 2 20580 028.4699 076.6160 0003483 066.9518 293.1349 15.01124054933395 ISS (ZARYA) 1 25544U 98067A 10360.37929572 .00010655 00000-0 83624-4 0 5286 2 25544 051.6484 326.7449 0005341 072.7465 085.9939 15.72170307693700 CXO 1 25867U 99040B 10359.41666667 -.00000314 00000-0 00000+0 0 5523 2 25867 068.1811 042.9399 8434395 275.8029 353.5413 00.37807580 7111 ____________________________________________________________________ These 2-Line ...Continue Reading

[list_settings.list_name] Current TLEs

December 26th 2010 PST

HST 1 20580U 90037B 10358.60613239 .00000517 00000-0 26610-4 0 6912 2 20580 028.4699 076.6160 0003483 066.9518 293.1349 15.01124054933395 ISS (ZARYA) 1 25544U 98067A 10359.36072932 .00009829 00000-0 77589-4 0 5219 2 25544 051.6478 331.9622 0005299 069.7980 080.2053 15.72145028693543 CXO 1 25867U 99040B 10359.41666667 -.00000314 00000-0 00000+0 0 5523 2 25867 068.1811 042.9399 8434395 275.8029 353.5413 00.37807580 7111 ____________________________________________________________________ These 2-Line ...Continue Reading

[list_settings.list_name] Current TLEs

December 25th 2010 PST

HST 1 20580U 90037B 10355.61426390 .00000649 00000-0 36697-4 0 6901 2 20580 028.4688 096.1547 0003452 034.7810 325.3095 15.01122689932941 ISS (ZARYA) 1 25544U 98067A 10358.08359686 .00009213 00000-0 73104-4 0 5149 2 25544 051.6488 338.5060 0005299 065.7126 051.2690 15.72117224693341 CXO 1 25867U 99040B 10356.79166667 -.00000344 00000-0 00000+0 0 5518 2 25867 068.1620 043.1855 8431356 275.7619 356.1251 00.37807348 7107 ____________________________________________________________________ These 2-Line ...Continue Reading

[list_settings.list_name] Current TLEs

December 24th 2010 PST

HST 1 20580U 90037B 10355.61426390 .00000649 00000-0 36697-4 0 6901 2 20580 028.4688 096.1547 0003452 034.7810 325.3095 15.01122689932941 ISS (ZARYA) 1 25544U 98067A 10357.45351917 .00012275 00000-0 95882-4 0 5091 2 25544 051.6494 341.7313 0004879 064.7027 083.8982 15.72108045693242 CXO 1 25867U 99040B 10356.79166667 -.00000344 00000-0 00000+0 0 5518 2 25867 068.1620 043.1855 8431356 275.7619 356.1251 00.37807348 7107 ____________________________________________________________________ These 2-Line ...Continue Reading

[list_settings.list_name] Current TLEs

December 23rd 2010 PST

HST 1 20580U 90037B 10355.61426390 .00000649 00000-0 36697-4 0 6901 2 20580 028.4688 096.1547 0003452 034.7810 325.3095 15.01122689932941 ISS (ZARYA) 1 25544U 98067A 10356.43810843 .00013502 00000-0 98872-4 0 5036 2 25544 051.6475 346.9251 0008357 020.7366 135.9255 15.73512706693080 CXO 1 25867U 99040B 10356.79166667 -.00000344 00000-0 00000+0 0 5518 2 25867 068.1620 043.1855 8431356 275.7619 356.1251 00.37807348 7107 ____________________________________________________________________ These 2-Line ...Continue Reading

[list_settings.list_name] Current TLEs

December 22nd 2010 PST

HST 1 20580U 90037B 10352.75536191 .00000614 00000-0 34056-4 0 6891 2 20580 028.4685 114.8314 0003245 002.6031 357.4729 15.01119852932518 ISS (ZARYA) 1 25544U 98067A 10355.35553750 .00015485 00000-0 11283-3 0 4993 2 25544 051.6472 352.4795 0008224 017.1565 123.0655 15.73488826692914 CXO 1 25867U 99040B 10354.12500000 -.00000353 00000-0 00000+0 0 5493 2 25867 068.1547 043.3766 8425380 275.7606 353.0063 00.37799890 7091 ____________________________________________________________________ These 2-Line ...Continue Reading

[list_settings.list_name] Current TLEs

December 21st 2010 PST

HST 1 20580U 90037B 10352.75536191 .00000614 00000-0 34056-4 0 6891 2 20580 028.4685 114.8314 0003245 002.6031 357.4729 15.01119852932518 ISS (ZARYA) 1 25544U 98067A 10354.40392361 .00018319 00000-0 13273-3 0 4931 2 25544 051.6468 357.3610 0008341 011.2032 134.9893 15.73468863692760 CXO 1 25867U 99040B 10354.12500000 -.00000353 00000-0 00000+0 0 5493 2 25867 068.1547 043.3766 8425380 275.7606 353.0063 00.37799890 7091 ____________________________________________________________________ These 2-Line ...Continue Reading

[list_settings.list_name] Current TLEs

December 20th 2010 PST

HST 1 20580U 90037B 10352.75536191 .00000614 00000-0 34056-4 0 6891 2 20580 028.4685 114.8314 0003245 002.6031 357.4729 15.01119852932518 ISS (ZARYA) 1 25544U 98067A 10353.38698321 .00020922 00000-0 15109-3 0 4867 2 25544 051.6471 002.5805 0008231 008.1237 133.8335 15.73440087692609 CXO 1 25867U 99040B 10354.12500000 -.00000353 00000-0 00000+0 0 5493 2 25867 068.1547 043.3766 8425380 275.7606 353.0063 00.37799890 7091 ____________________________________________________________________ These 2-Line ...Continue Reading

[list_settings.list_name] Current TLEs

December 19th 2010 PST

HST 1 20580U 90037B 10349.82996429 .00000477 00000-0 23579-4 0 6883 2 20580 028.4683 133.9318 0003271 330.3731 029.6707 15.01116541932076 ISS (ZARYA) 1 25544U 98067A 10352.38281250 .00018180 00000-0 13220-3 0 4815 2 25544 051.6468 007.7314 0008140 003.7814 206.4067 15.73391118692449 CXO 1 25867U 99040B 10351.50000000 -.00000273 00000-0 00000+0 0 5487 2 25867 068.1423 043.5285 8424053 275.7754 355.5574 00.37804537 7080 ____________________________________________________________________ These 2-Line ...Continue Reading

[list_settings.list_name] Current TLEs

December 18th 2010 PST

HST 1 20580U 90037B 10349.82996429 .00000477 00000-0 23579-4 0 6883 2 20580 028.4683 133.9318 0003271 330.3731 029.6707 15.01116541932076 ISS (ZARYA) 1 25544U 98067A 10351.41788112 .00018346 00000-0 13357-3 0 4744 2 25544 051.6471 012.6788 0008086 359.5854 141.4144 15.73355641692296 CXO 1 25867U 99040B 10351.50000000 -.00000273 00000-0 00000+0 0 5487 2 25867 068.1423 043.5285 8424053 275.7754 355.5574 00.37804537 7080 ____________________________________________________________________ These 2-Line ...Continue Reading
  • This mailing list is a public mailing list - anyone may join or leave, at any time.
  • This mailing list is announce-only.

International Space Station (ISS) / Hubble Space Telescope (HST) / Chandra X-Ray Observatory Orbital Data via EMAIL

Privacy Policy:

Private list